Find Starlink 35244

NORAD ID: 65829 Int'l Des: 2025-221 Owner: SPXS Country: US Constellation: starlink operational
LEOCIRCULAR

当前视图

正在加载3D地球...

关于 Starlink 35244

正在加载描述...

即将过境

Passes for default location (London). Set your location on the main map for personalized predictions.

高度历史

Loading altitude history...

两行轨道根数

1 65829U 25221G 26146.12040432 .00019896 00000-0 68193-3 0 9990
2 65829 53.1585 91.1945 0001262 88.4294 271.6851 15.30206745 37861
Epoch: May 26, 2026 • Age: 18 hours

当前状态

高度 479.1 km
速度 7.63 km/s
星下点 45.20°N, 25.04°E
发射日期 Sep 29, 2025
运行时间 0.6 years
类型 internet

技术详情

分类 Payload
质量 575.00 kg
干质量 530.00 kg
总质量 575.00 kg
长度 0.30 m
直径 4.10 m
跨度 29.00 m
形状 Box + pan
制造商 SPXS
平台类型 Starlink V2MO
阶段状态 In Orbit
所有者/国家 SPXS/US

Most Searched